Regional Weather Roundup
Issued by NWS Cleveland, OH

Home | Current Version | Previous Version | Graphics & Text | Print | Product List | Glossary On
Versions: 1 2 3 4 5 6 7 8 9 10 11 12 13 14 15 16 17 18 19 20 21 22 23 24 25 26 27 28 29 30 31 32 33 34 35 36 37 38 39 40 41 42 43 44 45 46 47 48 49 50
000
ASUS41 KCLE 030902
RWRCLE
OHIO REGIONAL WEATHER ROUNDUP
NATIONAL WEATHER SERVICE CLEVELAND, OH
500 AM EDT WED JUN 03 2015

NOTE: "FAIR" INDICATES FEW OR NO CLOUDS BELOW 12,000 FEET WITH NO
SIGNIFICANT WEATHER AND/OR OBSTRUCTIONS TO VISIBILITY.

OHZ001>008-015>018-024>027-034-035-043-044-031000-
   NORTHWEST OHIO

CITY           SKY/WX    TMP DP  RH WIND       PRES   REMARKS
DEFIANCE       PTCLDY    50  47  89 N3        30.11S
FINDLAY        CLEAR     51  49  92 N3        30.09S
TOLEDO EXPRESS CLEAR     47  45  93 CALM      30.11S
TOLEDO EXEC    CLEAR     52  47  83 CALM      30.11S
LIMA           MOCLDY    50  48  93 NE3       30.09S
$$

OHZ009>014-019>023-028>033-038-089-031000-
   NORTHEAST OHIO

CITY           SKY/WX    TMP DP  RH WIND       PRES   REMARKS
CLE-HOPKINS    CLEAR     51  47  86 SE5       30.13F
CLE-LAKEFRONT  CLEAR     54  48  80 SE3       30.11F
CUY CO. ARPT   NOT AVBL
LORAIN-ELYRIA  CLEAR     48  46  93 E3        30.12S
ASHTABULA      CLEAR     50  47  89 SE6       30.16
AKRON-CANTON   CLEAR     53  50  89 E9        30.12S
WOOSTER        CLEAR     50  49  96 NE3       30.11F
MANSFIELD      CLEAR     51  50  96 E5        30.10F
YOUNGSTOWN     PTCLDY    50  49  96 E6        30.15R
$$

OHZ042-051>053-060>062-070>072-077>081-031000-
  SOUTHWEST OHIO

CITY           SKY/WX    TMP DP  RH WIND       PRES   REMARKS
CINC-COVINGTON CLEAR     54  51  90 E5        30.06S
CINC-LUNKEN    CLOUDY    50  50 100 CALM      30.08R FOG
HAMILTON       CLEAR     48  47  96 CALM      30.08S
DAYTON         CLOUDY    57  54  89 CALM      30.08S
WRIGHT-PAT AFB MOCLDY    56  54  94 CALM      30.07F
DAYTON GENERAL CLOUDY    55  53  93 E6        30.06F
WILMINGTON     CLOUDY    56  52  86 NE3       30.07S
$$

OHZ036-037-039>041-045>050-054>059-063>069-073>076-082>088-031000-
  CENTRAL AND SOUTHEAST OHIO

CITY           SKY/WX    TMP DP  RH WIND       PRES   REMARKS
COLUMBUS       CLOUDY    59  54  83 CALM      30.07S
OSU AIRPORT    CLOUDY    58  54  86 N5        30.08S
BOLTON FIELD   NOT AVBL
RICKENBACK AFB CLOUDY    59  54  83 NE5       30.06F
NEWARK         CLOUDY    60  54  80 CALM      30.07F
MARION         CLOUDY    56  53  90 E5        30.09F
LANCASTER      CLOUDY    60  55  83 CALM      30.07F
ZANESVILLE     NOT AVBL
NEW PHILLY     CLEAR     53  50  89 CALM      30.11  FOG
$$



USA.gov is the U.S. government's official web portal to all federal, state and local government web resources and services.